Flag for Germany Weather past 2 weeks in Alsdorf, North Rhine-Westphalia, Germany

Now
34 °F

Fog.


Feels Like: 25 °F
Forecast: 31 / 37 °F
Wind: 12 mph from Southwest

Location: Maastricht Airport Zuid Limburg

Current Time: Feb 1, 2015 at 7:05:39 AM

Latest Report: Feb 1, 2015 at 6:25 AM


Visibility: 2 mi

Pressure: 29.15 "Hg

Humidity: 93%

Dew point: 32 °F

Location of AlsdorfLocation

Historic Weather in Alsdorf — Graph

°F

Alsdorf temperature yesterday

Maximum temperature yesterday: 37 °F (at 11:25 AM)
Minimum temperature yesterday: 32 °F (at 6:25 AM)
Average temperature yesterday: 35 °F

Past Weeks' High & Low Weather Summary

 TemperatureHumidityPressure
High45 °F (Jan 26, 5:25 PM)100% (Jan 17, 5:55 AM)30.42 "Hg (Jan 17, 5:55 AM)
Low28 °F (Jan 19, 7:25 AM)61% (Jan 18, 1:55 PM)28.74 "Hg (Jan 29, 9:55 PM)
Average35 °F89%29.81 "Hg
* Reported Jan 17 5:25 AM — Feb 1 5:55 AM, Alsdorf, Weather by CustomWeather, © 2014

Note: Actual official high and low records may vary slightly from our data, if they occured in-between our weather recording intervals... More about our weather records

Advertising

Alsdorf weather history for previous 24 hours

 ConditionsComfort  
Time TempWeatherWind HumidityBarometerVisibility
5:55 AM
Feb 1
34 °FFog.14 mph93%29.15 "Hg2 mi
5:25 AM34 °FFog.10 mph93%29.15 "Hg3 mi
4:55 AM34 °FFog.9 mph93%29.15 "Hg3 mi
4:25 AM34 °FFog.9 mph93%29.15 "Hg3 mi
3:55 AM34 °FFog.10 mph93%29.15 "Hg2 mi
3:25 AM34 °FFog.8 mph93%29.15 "Hg3 mi
2:55 AM34 °FLow clouds.9 mph93%29.15 "Hg4 mi
2:25 AM34 °FLow clouds.9 mph93%29.15 "Hg5 mi
1:55 AM34 °FOvercast.8 mph93%29.15 "Hg6 mi
1:25 AM34 °FOvercast.10 mph93%29.15 "HgN/A
12:55 AM34 °FLow clouds.8 mph93%29.15 "HgN/A
12:25 AM34 °FOvercast.6 mph93%29.12 "HgN/A
11:55 PM
Jan 31
32 °FPassing clouds.8 mph93%29.12 "HgN/A
11:25 PM34 °FPartly cloudy.7 mph87%29.12 "HgN/A
10:55 PM34 °FMostly cloudy.6 mph93%29.12 "HgN/A
10:25 PM34 °FMostly cloudy.5 mph93%29.12 "HgN/A
9:55 PM34 °FOvercast.2 mph93%29.12 "HgN/A
9:25 PM34 °FMostly cloudy.3 mph93%29.12 "HgN/A
8:55 PM34 °FChilly.6 mph87%29.12 "HgN/A
8:25 PM36 °FPassing clouds.8 mph87%29.09 "HgN/A
7:55 PM36 °FOvercast.9 mph81%29.09 "HgN/A
7:25 PM36 °FMostly cloudy.8 mph81%29.09 "HgN/A
6:55 PM37 °FOvercast.9 mph75%29.06 "HgN/A
6:25 PM36 °FOvercast.8 mph87%29.06 "HgN/A
5:55 PM36 °FOvercast.5 mph87%29.06 "HgN/A
5:25 PM36 °FMostly cloudy.6 mph87%29.06 "HgN/A
4:55 PM36 °FPartly sunny.7 mph81%29.03 "HgN/A
4:25 PM37 °FScattered clouds.10 mph81%29.03 "HgN/A
3:55 PM37 °FPartly sunny.10 mph81%29.03 "HgN/A
3:25 PM37 °FMore clouds than sun.12 mph81%29.03 "HgN/A
2:55 PM37 °FMore clouds than sun.10 mph81%29.03 "HgN/A
2:25 PM36 °FMostly cloudy.12 mph87%29.03 "HgN/A
1:55 PM37 °FMostly cloudy.12 mph81%29.03 "HgN/A
1:25 PM37 °FMostly cloudy.10 mph81%29.00 "HgN/A
12:55 PM37 °FOvercast.12 mph81%29.00 "HgN/A
12:25 PM37 °FPartly sunny.12 mph81%29.00 "HgN/A
11:55 AM37 °FBroken clouds.12 mph87%29.00 "HgN/A
11:25 AM37 °FPartly sunny.10 mph81%29.00 "HgN/A
10:55 AM36 °FPassing clouds.9 mph87%29.00 "Hg6 mi
10:25 AM34 °FChilly.10 mph93%29.00 "Hg6 mi
9:55 AM34 °FPassing clouds.9 mph87%28.97 "Hg5 mi
9:25 AM34 °FPassing clouds.9 mph87%28.97 "Hg5 mi
8:55 AM34 °FScattered clouds.10 mph87%28.97 "Hg6 mi
8:25 AM32 °FMostly cloudy.9 mph93%28.97 "Hg5 mi
7:55 AM32 °FClear.12 mph93%28.97 "Hg5 mi
7:25 AM32 °FPassing clouds.12 mph93%28.94 "Hg4 mi
Weather by CustomWeather, © 2014

See weather overviewHow to use our weather pages